Wind_Speed
13 14 14 16 17 19 18 20 24 28 34 35 39 40 37 33 35 36 40 45 46 46 47 51 54 57 61 62 63 66 75 77 82 81 86 91 88 92 94 94 97 101 104 105
17 18 18 18 19 23 24 28 33 37 44 40 42 42 41 42 42 44 45 46 46 46 45 51 56 60 60 64 65 63 64 65 69 77 83 86 89 94 97 100 102 105 109 113
20 20 17 21 24 27 30 35 38 42 49 51 46 45 46 45 40 36 32 34 33 34 39 44 52 47 55 59 63 67 67 75 81 83 88 94 96 101 104 105 106 109 111 110
22 20 20 24 27 30 34 38 42 44 45 52 54 44 37 33 31 29 30 33 35 43 49 50 49 51 63 67 69 77 79 83 88 94 97 101 106 109 112 114 116 113 112 106
19 23 25 26 31 37 40 42 43 47 48 42 40 32 25 26 30 30 34 39 45 48 51 57 61 63 65 70 75 78 81 85 88 96 102 104 107 108 109 109 106 106 104 102
23 26 28 32 36 40 41 42 45 45 39 36 33 31 32 35 38 41 45 50 53 57 62 63 64 68 73 76 80 81 85 88 89 88 91 93 95 98 98 98 97 97 97 96
26 28 34 38 41 43 44 47 42 35 33 36 35 33 37 43 47 51 54 57 60 64 69 70 72 75 77 78 81 83 83 81 80 79 80 81 83 83 84 84 85 87 87 89
31 34 40 43 42 44 48 43 41 32 33 38 42 43 45 49 54 57 59 64 69 73 73 75 76 74 76 77 78 79 79 77 74 75 77 77 76 75 75 77 77 79 81 81
35 38 42 44 47 47 40 37 39 37 36 40 44 46 50 56 59 61 66 71 73 74 75 73 71 70 73 75 76 76 74 75 75 73 70 67 68 70 70 72 73 76 77 78
41 43 46 51 50 44 39 33 34 37 41 46 48 50 54 55 60 66 69 72 73 72 69 68 71 70 68 70 71 74 74 70 68 64 63 64 61 63 69 73 75 74 73 70
43 45 50 53 47 41 41 46 45 47 49 51 53 53 57 62 67 71 75 70 66 68 71 71 70 70 69 68 66 67 64 61 57 57 55 55 60 65 66 67 68 65 61 56
46 48 49 45 44 44 45 46 47 51 53 57 64 67 67 68 71 75 68 63 67 69 66 67 67 69 65 63 60 57 52 52 51 46 49 56 59 61 63 62 59 54 51 49
49 48 47 46 45 47 48 49 53 55 57 61 66 69 73 76 76 68 70 71 70 66 63 62 62 58 52 48 47 46 45 45 40 46 50 52 57 62 60 54 48 44 41 38
51 52 48 46 46 47 50 55 58 62 65 65 69 72 73 72 68 70 73 72 68 63 61 60 54 46 43 41 40 39 36 35 42 45 49 55 59 57 50 45 41 36 30 29
51 48 48 49 52 51 55 58 63 66 70 71 75 74 68 66 69 73 70 66 61 60 58 51 46 40 39 38 35 30 28 35 41 45 50 56 55 48 41 37 33 27 21 19
48 46 51 55 54 57 61 64 68 72 74 76 71 65 65 68 69 69 66 60 59 55 47 43 39 36 33 30 23 22 31 37 40 46 52 55 48 40 37 33 28 19 13 10
47 49 55 56 59 61 65 68 73 75 74 66 65 66 69 67 66 63 59 60 57 48 42 40 36 31 27 17 17 26 32 36 41 48 53 46 41 38 35 29 23 16 13 12
50 53 56 60 63 67 69 71 71 70 66 67 67 66 64 61 56 55 58 58 51 45 38 35 32 26 13 11 19 25 33 35 43 49 49 42 39 34 29 24 22 18 18 17
53 56 61 63 65 69 70 70 64 64 65 67 66 64 61 50 49 51 54 52 44 39 34 31 27 14 8 15 20 27 32 37 46 49 43 39 34 28 25 23 21 21 21 21
58 62 63 67 69 68 67 63 63 64 63 62 61 59 56 51 49 51 51 44 39 33 29 28 15 5 10 16 21 26 30 38 46 48 40 35 28 22 21 23 24 25 28 30
62 65 66 66 65 61 62 63 64 61 56 52 52 50 50 51 53 50 47 40 34 28 25 14 2 4 10 16 21 25 29 37 43 40 30 27 23 23 26 30 36 37 38 42
62 62 63 63 59 60 61 58 54 51 50 49 43 42 44 48 48 46 40 34 28 23 13 2 3 4 11 17 21 25 27 35 38 30 23 24 24 28 37 43 48 53 57 59
58 59 57 55 58 58 55 51 47 44 45 43 42 42 46 47 45 39 34 28 21 12 2 5 4 4 9 16 20 23 25 30 29 22 22 25 30 38 46 53 55 58 62 63
53 52 54 54 51 47 46 44 44 43 43 42 44 46 46 44 39 33 26 20 12 1 8 5 3 3 8 14 19 19 23 25 19 22 26 29 34 42 51 54 55 58 62 65
48 50 50 48 43 41 41 41 42 44 44 44 45 46 44 40 33 24 17 9 2 10 9 4 2 4 7 12 15 15 21 23 21 27 30 33 40 47 52 56 61 63 63 63
47 45 43 41 40 38 39 40 42 44 43 41 44 45 40 31 23 15 8 5 8 9 6 4 3 4 6 10 10 12 13 21 29 33 37 42 50 54 56 56 57 58 60 62
Wind_Direction
285 288 292 296 298 289 289 300 297 296 292 291 296 302 300 294 283 277 277 276 274 272 273 268 268 266 263 260 259 262 259 261 261 267 270 274 277 279 279 280 280 280 281 281
290 295 298 303 293 294 305 300 298 297 296 294 297 298 296 292 290 287 283 278 276 273 271 270 263 260 259 265 268 271 272 275 273 272 274 276 278 279 280 281 280 280 281 281
292 301 310 296 301 303 302 300 304 303 303 305 305 306 304 300 297 291 284 279 277 277 274 266 254 260 266 267 269 269 274 278 278 281 279 279 279 282 283 283 283 284 284 284
292 302 297 300 303 301 305 308 305 305 305 303 311 309 308 306 304 296 289 277 273 282 282 282 273 270 266 265 270 271 270 274 274 271 277 279 279 279 280 280 281 280 280 282
289 290 300 305 306 308 311 309 309 305 303 301 300 307 309 301 299 298 294 287 286 285 283 286 286 289 286 283 284 281 280 280 279 273 276 276 276 277 279 280 282 282 282 284
292 297 302 307 310 311 310 309 307 303 302 302 305 310 309 304 305 303 300 296 294 290 290 292 292 288 287 286 285 285 284 285 286 285 283 282 282 282 282 281 281 281 282 282
295 298 304 309 312 314 311 308 305 296 298 297 304 306 305 302 302 301 299 298 296 294 295 297 296 296 294 294 293 291 290 289 288 285 284 284 283 282 282 282 282 283 283 281
301 303 306 310 311 313 311 307 300 294 299 304 306 306 302 302 301 302 302 302 301 300 299 299 299 299 298 296 295 293 293 293 296 297 296 293 292 292 291 290 290 288 287 288
303 305 308 307 311 312 309 300 296 296 295 292 294 297 302 302 303 305 302 301 301 302 302 300 300 299 295 295 296 297 299 301 300 299 299 298 297 297 297 296 297 297 295 292
307 311 310 311 313 314 307 304 298 297 293 295 300 301 300 302 303 302 304 303 303 302 302 304 300 299 300 300 298 298 301 300 300 300 301 301 301 302 301 300 299 297 294 295
309 309 312 314 316 311 312 313 313 306 303 303 302 303 304 306 307 306 306 307 305 305 307 306 306 307 301 298 296 295 297 299 299 302 304 305 304 303 303 303 301 300 300 297
309 312 314 310 307 309 310 311 307 306 309 309 310 312 310 308 307 306 306 307 310 309 308 307 306 302 301 297 296 296 298 301 304 306 307 306 305 308 309 306 306 305 303 302
309 312 308 303 306 309 310 309 308 308 308 308 309 310 308 308 311 314 314 312 310 311 311 308 304 302 300 296 296 299 301 305 308 311 309 312 317 316 312 311 309 308 307 305
308 307 306 303 306 311 306 306 306 308 308 309 309 309 309 313 316 312 311 313 314 315 313 311 310 306 302 303 302 305 308 313 315 314 318 323 321 318 317 318 317 316 311 308
306 306 301 305 307 309 306 307 307 308 309 311 312 313 314 315 312 312 313 314 316 315 314 313 311 308 308 307 309 310 317 317 317 321 325 326 325 326 327 327 327 325 318 313
304 302 305 307 308 307 309 308 309 310 311 312 313 314 314 313 313 312 315 317 316 316 312 314 312 311 311 313 315 322 322 322 323 327 331 331 333 337 339 340 338 338 339 349
303 304 305 306 307 308 309 310 311 311 312 314 314 314 314 315 314 315 316 319 320 317 317 317 319 319 319 317 324 324 328 328 331 334 335 338 345 346 349 351 2 14 37 53
303 304 304 305 307 309 310 313 313 314 315 314 313 313 312 315 315 317 318 321 316 318 316 321 323 324 319 323 329 331 337 336 337 339 342 350 352 354 359 14 29 45 66 74
303 304 304 307 307 309 311 314 313 313 312 312 312 312 313 316 315 316 320 318 314 315 316 321 323 323 332 336 336 340 342 343 341 344 351 357 359 2 15 34 53 64 74 85
305 306 307 309 310 312 313 313 312 312 312 312 312 313 315 318 318 320 321 317 314 312 313 319 320 336 339 342 347 346 348 346 345 350 0 3 11 20 38 49 59 74 88 93
306 306 309 312 313 312 312 312 313 315 315 315 315 316 318 320 318 321 320 319 317 318 317 316 351 19 359 1 357 355 354 349 349 360 7 17 29 55 64 73 79 85 93 99
307 309 310 310 311 311 311 313 314 316 318 319 318 319 319 318 319 320 318 317 316 317 318 262 112 23 12 5 2 2 359 353 355 8 29 43 60 79 87 89 90 92 94 97
307 309 309 311 312 313 315 318 321 320 321 321 322 322 323 322 321 320 320 320 323 325 221 149 123 35 12 6 7 8 3 357 2 25 51 66 80 92 96 96 95 96 97 97
308 310 312 313 316 320 320 323 323 323 326 326 327 325 326 327 325 324 320 321 324 335 162 145 148 36 12 9 12 14 15 12 25 59 72 83 92 98 99 98 99 100 100 100
310 313 314 318 322 324 324 326 331 330 331 330 329 330 332 334 333 330 332 340 71 147 158 147 116 23 11 17 22 32 43 39 65 79 86 95 101 99 100 101 101 101 100 99
312 315 317 319 323 325 327 329 333 336 334 334 332 334 339 343 341 347 11 67 125 152 150 123 91 41 30 23 32 58 48 55 86 91 96 99 102 102 102 101 100 100 101 101
Height
10872 10871 10870 10870 10869 10867 10866 10865 10863 10858 10849 10854 10848 10847 10844 10840 10834 10830 10824 10817 10813 10808 10804 10801 10796 10793 10790 10787 10782 10777 10771 10764 10757 10746 10736 10730 10718 10710 10708 10701 10691 10685 10678 10673
10868 10867 10866 10866 10864 10861 10861 10858 10855 10851 10838 10847 10842 10836 10832 10826 10820 10813 10809 10805 10801 10797 10794 10790 10784 10780 10777 10773 10766 10760 10752 10747 10742 10733 10723 10714 10705 10697 10690 10679 10673 10662 10655 10645
10865 10863 10864 10860 10860 10857 10855 10849 10845 10840 10828 10823 10825 10822 10813 10806 10803 10799 10797 10792 10787 10783 10780 10776 10774 10771 10766 10761 10755 10748 10740 10733 10721 10711 10701 10691 10686 10673 10666 10657 10646 10635 10629 10621
10860 10860 10858 10857 10854 10851 10848 10843 10835 10830 10826 10811 10804 10804 10801 10796 10793 10788 10785 10782 10777 10772 10768 10764 10762 10759 10755 10749 10739 10728 10721 10711 10703 10692 10683 10670 10658 10649 10639 10632 10620 10614 10604 10599
10857 10854 10852 10851 10846 10842 10839 10833 10827 10819 10813 10809 10801 10801 10796 10792 10787 10783 10777 10772 10767 10763 10757 10752 10748 10744 10735 10726 10718 10709 10699 10688 10678 10672 10660 10651 10640 10632 10619 10608 10599 10586 10577 10570
10851 10848 10845 10842 10839 10834 10830 10825 10817 10809 10802 10798 10796 10793 10787 10780 10776 10773 10768 10762 10756 10749 10742 10738 10733 10725 10716 10707 10694 10682 10672 10662 10654 10645 10634 10625 10614 10603 10593 10583 10573 10563 10553 10545
10845 10842 10838 10834 10830 10825 10819 10813 10810 10800 10795 10789 10789 10787 10780 10772 10766 10761 10755 10748 10740 10733 10725 10720 10711 10700 10689 10678 10667 10655 10645 10637 10629 10620 10610 10599 10589 10578 10569 10559 10548 10537 10527 10515
10837 10834 10829 10824 10822 10817 10807 10802 10796 10796 10789 10781 10777 10773 10769 10763 10754 10747 10740 10731 10721 10709 10703 10695 10685 10675 10664 10655 10643 10632 10623 10611 10602 10593 10583 10572 10562 10552 10540 10530 10522 10511 10499 10488
10829 10827 10821 10816 10812 10809 10802 10794 10789 10787 10784 10777 10772 10767 10760 10749 10741 10735 10726 10714 10702 10692 10683 10674 10663 10655 10644 10632 10620 10610 10601 10590 10580 10570 10561 10551 10540 10529 10518 10505 10496 10485 10473 10463
10820 10814 10809 10802 10802 10794 10791 10789 10784 10778 10772 10765 10762 10756 10746 10742 10732 10721 10710 10698 10686 10673 10663 10657 10643 10632 10622 10611 10599 10590 10580 10571 10563 10555 10545 10533 10521 10510 10500 10487 10474 10462 10450 10440
10810 10805 10798 10789 10787 10785 10779 10771 10768 10761 10756 10752 10747 10743 10734 10724 10713 10703 10692 10681 10669 10656 10646 10632 10619 10611 10601 10592 10583 10575 10566 10557 10548 10540 10529 10518 10508 10495 10483 10469 10455 10444 10432 10424
10800 10795 10789 10782 10777 10774 10771 10768 10758 10750 10743 10734 10725 10719 10714 10706 10698 10686 10674 10663 10651 10641 10628 10616 10606 10593 10584 10573 10565 10558 10551 10543 10536 10528 10518 10508 10494 10479 10467 10452 10439 10427 10416 10408
10792 10788 10781 10774 10769 10765 10763 10753 10744 10739 10734 10726 10716 10707 10694 10685 10675 10662 10650 10643 10634 10624 10614 10602 10590 10580 10571 10562 10555 10548 10541 10533 10526 10518 10508 10495 10481 10465 10450 10438 10425 10415 10405 10397
10783 10777 10770 10765 10763 10761 10751 10741 10733 10724 10717 10712 10703 10692 10681 10669 10656 10645 10635 10625 10615 10605 10594 10583 10574 10566 10558 10551 10545 10538 10531 10525 10518 10508 10496 10483 10469 10453 10437 10424 10413 10404 10396 10389
10773 10767 10759 10755 10752 10748 10739 10730 10722 10713 10703 10694 10684 10671 10662 10653 10642 10630 10621 10611 10600 10589 10579 10570 10562 10555 10547 10541 10536 10529 10526 10519 10510 10499 10487 10473 10457 10442 10427 10415 10405 10396 10389 10385
10766 10758 10749 10743 10740 10731 10725 10716 10708 10697 10687 10678 10667 10656 10648 10639 10626 10614 10605 10596 10586 10578 10568 10561 10553 10546 10540 10534 10529 10525 10521 10513 10503 10491 10478 10462 10447 10432 10420 10409 10400 10392 10387 10384
10755 10749 10740 10733 10727 10720 10712 10704 10692 10680 10673 10663 10652 10643 10631 10621 10610 10599 10589 10581 10571 10563 10556 10550 10546 10540 10534 10530 10527 10523 10517 10506 10496 10484 10470 10455 10439 10427 10416 10407 10398 10391 10387 10386
10746 10740 10730 10722 10713 10706 10697 10688 10679 10666 10654 10646 10638 10629 10618 10610 10598 10587 10577 10569 10559 10554 10548 10544 10539 10534 10531 10529 10526 10520 10511 10502 10491 10479 10464 10449 10436 10425 10416 10408 10400 10395 10392 10390
10734 10728 10719 10712 10704 10693 10683 10674 10665 10656 10645 10632 10621 10613 10605 10599 10591 10581 10571 10560 10552 10546 10542 10539 10534 10531 10529 10527 10523 10517 10508 10498 10487 10474 10459 10447 10436 10427 10419 10412 10406 10402 10399 10397
10721 10714 10706 10700 10689 10680 10669 10661 10652 10643 10633 10620 10609 10595 10588 10585 10576 10568 10560 10551 10546 10540 10537 10534 10531 10530 10529 10526 10521 10515 10506 10497 10485 10473 10459 10449 10440 10432 10425 10417 10412 10408 10405 10404
10711 10700 10692 10685 10675 10666 10657 10649 10638 10628 10620 10610 10600 10590 10581 10572 10563 10557 10548 10543 10538 10534 10532 10529 10530 10530 10529 10525 10520 10514 10507 10498 10487 10474 10465 10456 10447 10439 10433 10426 10422 10417 10413 10413
10700 10689 10682 10673 10666 10656 10648 10638 10630 10619 10609 10601 10593 10584 10576 10567 10557 10549 10542 10537 10533 10530 10527 10528 10529 10530 10528 10525 10521 10515 10509 10500 10490 10480 10473 10465 10456 10449 10444 10440 10436 10432 10429 10429
10688 10678 10670 10665 10655 10644 10634 10625 10619 10610 10602 10592 10584 10576 10567 10557 10548 10540 10535 10530 10527 10526 10525 10528 10529 10529 10528 10526 10522 10517 10512 10504 10495 10488 10481 10474 10467 10461 10456 10453 10449 10446 10444 10443
10674 10667 10660 10653 10645 10635 10627 10619 10611 10602 10594 10585 10576 10567 10558 10547 10539 10533 10528 10525 10523 10523 10526 10528 10530 10530 10529 10527 10524 10521 10516 10508 10501 10496 10489 10484 10479 10474 10470 10467 10465 10464 10462 10463
10665 10657 10649 10643 10637 10630 10621 10613 10604 10594 10585 10577 10568 10559 10550 10540 10532 10526 10523 10522 10522 10524 10527 10529 10530 10531 10530 10528 10527 10524 10521 10515 10509 10503 10499 10495 10492 10487 10485 10484 10482 10482 10481 10481
10657 10650 10642 10635 10630 10624 10617 10609 10601 10591 10582 10573 10563 10553 10543 10536 10530 10525 10523 10523 10524 10526 10528 10530 10531 10531 10531 10530 10529 10528 10526 10523 10518 10514 10510 10508 10506 10503 10501 10501 10499 10497 10497 10497